Regional Weather Roundup
Issued by NWS

Home | Current Version | Previous Version | Graphics & Text | Print | Product List | Glossary On
Versions: 1 2 3 4 5 6 7 8 9 10 11 12 13 14 15 16 17 18 19 20 21 22 23 24 25 26 27 28 29 30 31 32 33 34 35 36 37 38 39 40 41 42 43 44 45 46 47 48 49 50
983
ASUS43 KIND 270500
RWRIN

WEATHER ROUNDUP FOR INDIANA
NATIONAL WEATHER SERVICE INDIANAPOLIS IN
100 AM EDT SUN MAY 27 2018

NOTE: "FAIR" INDICATES FEW OR NO CLOUDS BELOW 12,000 FEET WITH NO
SIGNIFICANT WEATHER AND/OR OBSTRUCTIONS TO VISIBILITY.

* - STATION DOES NOT REPORT WEATHER SUCH AS PRECIPITATION OR FOG.

+ - STATION NOT QUALITY CONTROLLED BY THE NATIONAL WEATHER SERVICE.
    USE DATA WITH CAUTION...ESPECIALLY DEWPOINT AND RELATIVE
    HUMIDITY OBSERVATIONS.

INZ001>003-010>013-019-020-270600-
NORTHWEST INDIANA

CITY           SKY/WX    TMP DP  RH WIND       PRES   REMARKS
KNOX *+        FAIR      70  63  78 E3        29.83S
LA PORTE +     FAIR      68  64  86 CALM      29.85S
MICHIGAN CITY+ FAIR      64  61  88 CALM      29.83F
MONTICELLO +   FAIR      70  68  93 CALM      29.83R

$$

LMZ046-743>745-270600-
SOUTHERN LAKE MICHIGAN

STATION/POSITION TIME  TEMP    WIND        PRES    WAVE
                       AIR SEA DIR/SP/G            HT
                 (UTC) (F)     (DEG/KT/KT) (MB)    (FT)
BURNS HARBOR     0440   78     150/  6/ 11 1010.5R
MICHIGAN CITY    0430   76     120/  9/  9   N/A
5NW MICH CITY    0450   69 65  140/  4/  6   N/A     0

$$

INZ004-005-014>016-021>024-270600-
NORTH CENTRAL INDIANA

CITY           SKY/WX    TMP DP  RH WIND       PRES   REMARKS
GOSHEN         FAIR      66  61  84 CALM      29.84S
PERU/GRISSOM   FAIR      72  70  95 S5        29.84S
ROCHESTER +    FAIR      68  64  88 CALM      29.85S
SOUTH BEND     FAIR      66  61  84 CALM      29.84S
WARSAW +       FAIR      63  61  94 CALM      29.85S

$$

INZ006>009-017-018-025>027-270600-
NORTHEAST INDIANA

CITY           SKY/WX    TMP DP  RH WIND       PRES   REMARKS
ANGOLA *+      FAIR      66  66 100 CALM      29.85S
AUBURN +       FAIR      64  64 100 CALM      29.86R
FORT WAYNE     FAIR      71  67  87 S6        29.85S
KENDALLVILLE + FAIR      66  64  92 CALM      29.86R FOG

$$

INZ028-029-035-036-043>045-051>053-270600-
WEST CENTRAL INDIANA

CITY           SKY/WX    TMP DP  RH WIND       PRES   REMARKS
CRAWFORDSVL +  FAIR      68  66  93 CALM      29.85S
GREENCASTLE +  FAIR      68  63  83 CALM      29.86S
LAFAYETTE      FAIR      70  69  97 NW3       29.82S
TERRE HAUTE    FAIR      75  67  76 CALM      29.84S

$$

INZ030>032-037>040-046>048-054>057-064-065-270600-
CENTRAL INDIANA

CITY           SKY/WX    TMP DP  RH WIND       PRES   REMARKS
ANDERSON       FAIR      72  63  73 CALM      29.87S
FRANKFORT +    FAIR      72  68  87 W3        29.87R
GREENWOOD *+   FAIR      73  68  85 S3        29.86F
INDIANAPOLIS   MOCLDY    73  68  84 S6        29.85S
-EAGLE CREEK   MOCLDY    74  66  76 CALM      29.85R
SHELBYVILLE    FAIR      74  65  73 S7        29.85F

$$

INZ033-034-041-042-049-050-058-059-270600-
EAST CENTRAL INDIANA

CITY           SKY/WX    TMP DP  RH WIND       PRES   REMARKS
MUNCIE         FAIR      73  64  73 CALM      29.86S
RICHMOND +     FAIR      68  68 100 W5        29.89S

$$

INZ060-061-067>069-081>083-085>088-270600-
SOUTHWEST INDIANA

CITY           SKY/WX    TMP DP  RH WIND       PRES   REMARKS
EVANSVILLE     FAIR      76  70  82 SW6       29.86S
HUNTINGBURG +  FAIR      76  70  82 S6        29.87S

$$

INZ062-063-066-070>080-084-089>092-270600-
SOUTH CENTRAL AND SOUTHEAST INDIANA

CITY           SKY/WX    TMP DP  RH WIND       PRES   REMARKS
BLOOMINGTON    CLOUDY    75  68  78 SE10      29.86R
FRENCH LICK *+ FAIR      73  61  64 SW5       29.88S
SEYMOUR +      FAIR      73  68  83 N9        29.87R

$$





USA.gov is the U.S. government's official web portal to all federal, state and local government web resources and services.